Date String (YYYY-MM-DD hh:mm:ss) UTC,Instrument flags,Ambient pressure (hPa),Sample flow (lpm),Bypass flow (lpm),Sample temperature (°C),Ambient temperature (°C),ASC tube jacket temperature (°C),LED temperature (°C),Box temperature (°C),Sample RH (%),Span deviation,Mass concentration (μg/m³),Mass concentration (μg/m³),Mass concentration (μg/m³)
DateTimeUTC,F1_M11,P_M11,Q1_M11,Q2_M11,T1_M11,T2_M11,T3_M11,T4_M11,T5_M11,U1_M11,ZSPAN_M11,X0_M11,X2_M11,X1_M11
2022-03-16 11:00:00,,0821.4,5.00,0.00,25.2,24.4,00.0,34.2,27.0,09.7,0000.0,0004.63,0001.30,0000.90
2022-03-16 11:01:00,,0821.4,5.00,0.00,25.2,24.4,00.0,34.2,27.0,09.7,0000.0,0004.59,0001.30,0000.91
2022-03-16 11:02:00,,0821.4,5.00,0.00,25.2,24.4,00.0,34.2,26.9,09.7,0000.0,0004.51,0001.28,0000.91
2022-03-16 11:03:00,,0821.3,5.00,0.00,25.2,24.4,00.0,34.2,26.9,09.8,0000.0,0004.88,0001.23,0000.90
2022-03-16 11:04:00,,0821.3,5.01,0.00,25.2,24.4,00.0,34.2,26.9,09.8,0000.0,0005.28,0001.27,0000.91
2022-03-16 11:05:00,,0821.3,5.01,0.00,25.2,24.4,00.0,34.2,26.9,09.8,0000.0,0004.48,0001.25,0000.91
2022-03-16 11:06:00,,0821.2,5.01,0.00,25.2,24.3,00.0,34.2,26.9,09.8,0000.0,0004.49,0001.26,0000.91
2022-03-16 11:07:00,,0821.3,5.00,0.00,25.2,24.3,00.0,34.2,26.8,09.7,0000.0,0004.51,0001.29,0000.92
2022-03-16 11:08:00,,0821.3,4.99,0.00,25.2,24.2,00.0,34.2,26.8,09.8,0000.0,0004.57,0001.30,0000.92
2022-03-16 11:09:00,,0821.3,4.99,0.00,25.1,24.2,00.0,34.2,26.8,09.8,0000.0,0005.82,0001.32,0000.93
2022-03-16 11:10:00,,0821.3,5.00,0.00,25.1,24.2,00.0,34.2,26.8,09.8,0000.0,0005.57,0001.33,0000.93
2022-03-16 11:11:00,,0821.3,5.01,0.00,25.1,24.2,00.0,34.2,26.8,09.9,0000.0,0004.81,0001.35,0000.93
2022-03-16 11:12:00,,0821.4,5.00,0.00,25.1,24.2,00.0,34.2,26.7,09.9,0000.0,0004.82,0001.34,0000.92
2022-03-16 11:13:00,,0821.4,4.99,0.00,25.1,24.2,00.0,34.2,26.7,09.9,0000.0,0004.80,0001.32,0000.91
2022-03-16 11:14:00,,0821.3,5.00,0.00,25.0,24.2,00.0,34.1,26.7,09.9,0000.0,0004.41,0001.38,0000.91
2022-03-16 11:15:00,,0821.3,5.01,0.00,25.0,24.2,00.0,34.1,26.7,09.9,0000.0,0003.72,0001.38,0000.91
2022-03-16 11:16:00,,0821.4,5.00,0.00,25.0,24.2,00.0,34.1,26.7,10.0,0000.0,0003.77,0001.41,0000.92
2022-03-16 11:17:00,,0821.4,5.00,0.00,25.0,24.2,00.0,34.1,26.7,10.0,0000.0,0003.83,0001.39,0000.92
2022-03-16 11:18:00,,0821.3,4.99,0.00,25.0,24.2,00.0,34.1,26.7,10.0,0000.0,0003.79,0001.34,0000.91
2022-03-16 11:19:00,,0821.3,4.99,0.00,25.0,24.2,00.0,34.1,26.8,10.0,0000.0,0003.77,0001.36,0000.90
2022-03-16 11:20:00,,0821.3,5.01,0.00,25.0,24.2,00.0,34.1,26.8,10.0,0000.0,0002.47,0001.37,0000.91
2022-03-16 11:21:00,,0821.2,5.00,0.00,25.0,24.2,00.0,34.1,26.8,10.1,0000.0,0002.72,0001.45,0000.91
2022-03-16 11:22:00,,0821.2,5.00,0.00,25.0,24.2,00.0,34.1,26.7,10.2,0000.0,0003.03,0001.50,0000.91
2022-03-16 11:23:00,,0821.2,5.00,0.00,25.0,24.2,00.0,34.1,26.7,10.2,0000.0,0003.24,0001.57,0000.92
2022-03-16 11:24:00,,0821.2,5.01,0.00,25.1,24.2,00.0,34.1,26.7,10.2,0000.0,0003.33,0001.61,0000.93
2022-03-16 11:25:00,,0821.2,5.00,0.00,25.1,24.2,00.0,34.1,26.7,10.3,0000.0,0003.26,0001.58,0000.92
2022-03-16 11:26:00,,0821.2,5.00,0.00,25.1,24.2,00.0,34.1,26.8,10.3,0000.0,0003.23,0001.57,0000.91
2022-03-16 11:27:00,,0821.2,4.99,0.00,25.1,24.3,00.0,34.1,26.8,10.3,0000.0,0003.28,0001.58,0000.91
2022-03-16 11:28:00,,0821.2,5.00,0.00,25.1,24.3,00.0,34.1,26.7,10.1,0000.0,0003.26,0001.58,0000.91
2022-03-16 11:29:00,,0821.1,4.99,0.00,25.1,24.2,00.0,34.1,26.7,10.2,0000.0,0003.21,0001.57,0000.91
2022-03-16 11:30:00,,0821.2,5.00,0.00,25.1,24.2,00.0,34.1,26.7,10.3,0000.0,0003.23,0001.55,0000.90
2022-03-16 11:31:00,,0821.2,5.00,0.00,25.1,24.2,00.0,34.1,26.7,10.2,0000.0,0003.58,0001.51,0000.89
2022-03-16 11:32:00,,0821.1,5.00,0.00,25.0,24.2,00.0,34.1,26.7,10.1,0000.0,0003.63,0001.45,0000.89
2022-03-16 11:33:00,,0821.2,5.01,0.00,25.1,24.2,00.0,34.1,26.7,10.2,0000.0,0003.34,0001.40,0000.89
2022-03-16 11:34:00,,0821.2,4.99,0.00,25.1,24.2,00.0,34.1,26.7,10.2,0000.0,0003.23,0001.39,0000.89
2022-03-16 11:35:00,,0821.3,4.99,0.00,25.0,24.2,00.0,34.1,26.7,10.2,0000.0,0003.28,0001.43,0000.90
2022-03-16 11:36:00,,0821.3,5.00,0.00,25.0,24.2,00.0,34.1,26.7,10.1,0000.0,0003.36,0001.48,0000.91
2022-03-16 11:37:00,,0821.4,5.00,0.00,25.1,24.1,00.0,34.1,26.7,10.2,0000.0,0003.34,0001.48,0000.92
2022-03-16 11:38:00,,0821.3,5.00,0.00,25.1,24.2,00.0,34.1,26.7,10.2,0000.0,0003.26,0001.45,0000.92
2022-03-16 11:39:00,,0821.3,4.99,0.00,25.1,24.2,00.0,34.1,26.7,10.2,0000.0,0003.36,0001.46,0000.92
2022-03-16 11:40:00,,0821.4,5.01,0.00,25.1,24.2,00.0,34.1,26.6,10.2,0000.0,0003.72,0001.50,0000.92
2022-03-16 11:41:00,,0821.4,4.99,0.00,25.1,24.1,00.0,34.1,26.7,10.3,0000.0,0003.67,0001.49,0000.93
2022-03-16 11:42:00,,0821.4,4.99,0.00,25.1,24.2,00.0,34.1,26.7,10.3,0000.0,0003.47,0001.53,0000.94
2022-03-16 11:43:00,,0821.4,5.01,0.00,25.1,24.2,00.0,34.1,26.8,10.3,0000.0,0002.99,0001.52,0000.93
2022-03-16 11:44:00,,0821.4,5.00,0.00,25.1,24.2,00.0,34.1,26.7,10.2,0000.0,0003.02,0001.52,0000.93
2022-03-16 11:45:00,,0821.4,5.00,0.00,25.1,24.2,00.0,34.1,26.7,10.3,0000.0,0003.17,0001.50,0000.92
2022-03-16 11:46:00,,0821.4,5.00,0.00,25.1,24.2,00.0,34.1,26.8,10.2,0000.0,0003.08,0001.44,0000.91
2022-03-16 11:47:00,,0821.4,5.01,0.00,25.1,24.2,00.0,34.1,26.7,10.2,0000.0,0003.03,0001.38,0000.91
2022-03-16 11:48:00,,0821.5,5.00,0.00,25.1,24.2,00.0,34.1,26.7,10.2,0000.0,0003.09,0001.39,0000.89
2022-03-16 11:49:00,,0821.6,5.00,0.00,25.1,24.2,00.0,34.1,26.7,10.3,0000.0,0003.06,0001.38,0000.88
2022-03-16 11:50:00,,0821.5,5.00,0.00,25.1,24.2,00.0,34.1,26.7,10.2,0000.0,0003.05,0001.39,0000.89
2022-03-16 11:51:00,,0821.6,5.00,0.00,25.1,24.2,00.0,34.1,26.7,10.3,0000.0,0002.59,0001.36,0000.89
2022-03-16 11:52:00,,0821.7,5.00,0.00,25.1,24.2,00.0,34.1,26.7,10.2,0000.0,0002.60,0001.35,0000.88
2022-03-16 11:53:00,,0821.8,4.99,0.00,25.1,24.1,00.0,34.1,26.7,10.2,0000.0,0002.77,0001.36,0000.89
2022-03-16 11:54:00,,0821.9,5.00,0.00,25.0,24.2,00.0,34.1,26.7,10.3,0000.0,0002.97,0001.39,0000.88
2022-03-16 11:55:00,,0821.8,5.00,0.00,25.0,24.2,00.0,34.1,26.8,10.3,0000.0,0003.17,0001.39,0000.87
2022-03-16 11:56:00,,0821.8,5.00,0.00,25.1,24.2,00.0,34.1,26.8,10.3,0000.0,0003.79,0001.42,0000.86
2022-03-16 11:57:00,,0821.7,5.00,0.00,25.1,24.2,00.0,34.1,26.8,10.1,0000.0,0004.50,0001.43,0000.85
2022-03-16 11:58:00,,0821.8,5.00,0.00,25.1,24.3,00.0,34.1,26.9,09.8,0000.0,0004.70,0001.51,0000.88
2022-03-16 11:59:00,,0821.8,5.00,0.00,25.1,24.3,00.0,34.1,26.9,09.6,0000.0,0005.14,0001.57,0000.90
